Météo par heure à Kyzyl-Yar

Ce jour, 4 Août, Mercredi

Heure Température Précipitation Vent Pression Humidité
00:00 +24°C° 0 mm 2 m/s 749 mmHg 52%
01:00 +24°C° 0 mm 2 m/s 749 mmHg 53%
02:00 +23°C° 0 mm 2 m/s 749 mmHg 55%
03:00 +23°C° 0 mm 2 m/s 749 mmHg 57%
04:00 +21°C° 0 mm 2 m/s 749 mmHg 58%
05:00 +24°C° 0 mm 2 m/s 749 mmHg 56%
06:00 +25°C° 0 mm 2 m/s 749 mmHg 54%
07:00 +26°C° 0 mm 2 m/s 750 mmHg 52%
08:00 +29°C° 0 mm 2 m/s 750 mmHg 45%
09:00 +31°C° 0 mm 2 m/s 750 mmHg 38%
10:00 +35°C° 0 mm 2 m/s 750 mmHg 30%
11:00 +37°C° 0 mm 2 m/s 749 mmHg 26%
12:00 +38°C° 0 mm 2 m/s 749 mmHg 23%
13:00 +40°C° 0 mm 2 m/s 749 mmHg 19%
14:00 +38°C° 0 mm 3 m/s 749 mmHg 22%
15:00 +36°C° 0 mm 4 m/s 749 mmHg 26%
16:00 +35°C° 0 mm 4 m/s 748 mmHg 29%
17:00 +33°C° 0 mm 4 m/s 749 mmHg 38%
18:00 +29°C° 0 mm 4 m/s 749 mmHg 48%
19:00 +27°C° 0 mm 3 m/s 749 mmHg 57%
20:00 +27°C° 0 mm 3 m/s 748 mmHg 56%
21:00 +26°C° 0 mm 3 m/s 748 mmHg 56%
22:00 +25°C° 0 mm 3 m/s 748 mmHg 55%
23:00 +25°C° 0 mm 3 m/s 748 mmHg 55%

Demain, 5 Août, Jeudi

Heure Température Précipitation Vent Pression Humidité
00:00 +24°C° 0 mm 3 m/s 747 mmHg 55%
01:00 +24°C° 0 mm 2 m/s 747 mmHg 56%
02:00 +23°C° 0 mm 2 m/s 747 mmHg 55%
03:00 +23°C° 0 mm 2 m/s 747 mmHg 55%
04:00 +23°C° 0 mm 1 m/s 747 mmHg 54%
05:00 +24°C° 0 mm 1 m/s 747 mmHg 53%
06:00 +24°C° 0 mm 2 m/s 748 mmHg 51%
07:00 +25°C° 0 mm 2 m/s 748 mmHg 50%
08:00 +27°C° 0 mm 2 m/s 748 mmHg 47%
09:00 +28°C° 0 mm 2 m/s 748 mmHg 44%
10:00 +30°C° 0 mm 2 m/s 749 mmHg 41%
11:00 +30°C° 0 mm 2 m/s 748 mmHg 41%
12:00 +30°C° 0 mm 2 m/s 748 mmHg 40%
13:00 +31°C° 0 mm 2 m/s 748 mmHg 39%
14:00 +30°C° 0 mm 3 m/s 748 mmHg 41%
15:00 +30°C° 0 mm 4 m/s 748 mmHg 43%
16:00 +29°C° 0 mm 5 m/s 748 mmHg 45%
17:00 +27°C° 0.4 mm 4 m/s 748 mmHg 55%
18:00 +25°C° 0.4 mm 2 m/s 748 mmHg 65%
19:00 +23°C° 0.4 mm 1 m/s 748 mmHg 75%
20:00 +22°C° 0.9 mm 1 m/s 748 mmHg 80%
21:00 +21°C° 0.9 mm 1 m/s 748 mmHg 84%
22:00 +20°C° 0.9 mm 1 m/s 748 mmHg 88%
23:00 +20°C° 0.9 mm 1 m/s 748 mmHg 90%

Après-demain, 6 Août, Vendredi

Heure Température Précipitation Vent Pression Humidité
00:00 +19°C° 0.9 mm 1 m/s 749 mmHg 92%
01:00 +19°C° 0.9 mm 1 m/s 749 mmHg 94%
02:00 +18°C° 0 mm 1 m/s 749 mmHg 95%
03:00 +18°C° 0 mm 1 m/s 749 mmHg 96%
04:00 +17°C° 0 mm 2 m/s 749 mmHg 96%
05:00 +17°C° 0 mm 2 m/s 749 mmHg 95%
06:00 +18°C° 0 mm 2 m/s 749 mmHg 93%
07:00 +19°C° 0 mm 3 m/s 749 mmHg 92%
08:00 +20°C° 0 mm 3 m/s 749 mmHg 82%
09:00 +22°C° 0 mm 3 m/s 750 mmHg 71%
10:00 +25°C° 0 mm 4 m/s 750 mmHg 61%
11:00 +26°C° 0 mm 4 m/s 750 mmHg 52%
12:00 +27°C° 0 mm 5 m/s 750 mmHg 44%
13:00 +29°C° 0 mm 5 m/s 750 mmHg 35%
14:00 +28°C° 0 mm 5 m/s 750 mmHg 38%
15:00 +28°C° 0 mm 6 m/s 750 mmHg 40%
16:00 +28°C° 0 mm 6 m/s 750 mmHg 43%
17:00 +27°C° 0 mm 5 m/s 750 mmHg 45%
18:00 +26°C° 0 mm 4 m/s 750 mmHg 47%
19:00 +25°C° 0 mm 4 m/s 750 mmHg 50%
20:00 +22°C° 0 mm 3 m/s 751 mmHg 53%
21:00 +20°C° 0 mm 3 m/s 751 mmHg 55%
22:00 +18°C° 0 mm 2 m/s 751 mmHg 58%
23:00 +17°C° 0 mm 2 m/s 751 mmHg 63%

7 Août, Samedi

Heure Température Précipitation Vent Pression Humidité
00:00 +16°C° 0 mm 2 m/s 752 mmHg 67%
01:00 +15°C° 0 mm 2 m/s 752 mmHg 72%
02:00 +15°C° 0 mm 1 m/s 752 mmHg 74%
03:00 +14°C° 0 mm 1 m/s 752 mmHg 76%
04:00 +13°C° 0 mm 1 m/s 752 mmHg 78%
05:00 +15°C° 0 mm 1 m/s 753 mmHg 72%
06:00 +16°C° 0 mm 1 m/s 753 mmHg 67%
07:00 +17°C° 0 mm 2 m/s 753 mmHg 62%
08:00 +19°C° 0 mm 2 m/s 753 mmHg 54%
09:00 +21°C° 0 mm 3 m/s 754 mmHg 46%
10:00 +24°C° 0 mm 3 m/s 754 mmHg 38%
11:00 +25°C° 0 mm 3 m/s 753 mmHg 35%
12:00 +26°C° 0 mm 3 m/s 753 mmHg 31%
13:00 +27°C° 0 mm 4 m/s 753 mmHg 27%
14:00 +27°C° 0 mm 4 m/s 753 mmHg 27%
15:00 +28°C° 0 mm 4 m/s 753 mmHg 28%
16:00 +28°C° 0 mm 4 m/s 753 mmHg 28%
17:00 +27°C° 0 mm 3 m/s 753 mmHg 34%
18:00 +25°C° 0 mm 3 m/s 753 mmHg 40%
19:00 +24°C° 0 mm 2 m/s 753 mmHg 47%
20:00 +21°C° 0 mm 2 m/s 754 mmHg 52%
21:00 +19°C° 0 mm 2 m/s 754 mmHg 56%
22:00 +18°C° 0 mm 1 m/s 754 mmHg 61%
23:00 +16°C° 0 mm 1 m/s 754 mmHg 62%

8 Août, Dimanche

Heure Température Précipitation Vent Pression Humidité
00:00 +16°C° 0 mm 1 m/s 754 mmHg 64%
01:00 +15°C° 0 mm 0 m/s 754 mmHg 65%
02:00 +15°C° 0 mm 0 m/s 754 mmHg 65%
03:00 +15°C° 0 mm 0 m/s 755 mmHg 65%
04:00 +15°C° 0 mm 0 m/s 755 mmHg 64%
05:00 +16°C° 0 mm 0 m/s 755 mmHg 61%
06:00 +17°C° 0 mm 0 m/s 755 mmHg 58%
07:00 +18°C° 0 mm 0 m/s 756 mmHg 55%
08:00 +20°C° 0 mm 0 m/s 755 mmHg 50%
09:00 +24°C° 0 mm 1 m/s 755 mmHg 46%
10:00 +26°C° 0 mm 1 m/s 755 mmHg 41%
11:00 +27°C° 0 mm 2 m/s 755 mmHg 39%
12:00 +28°C° 0 mm 2 m/s 755 mmHg 38%
13:00 +29°C° 0 mm 2 m/s 755 mmHg 36%
14:00 +29°C° 0 mm 2 m/s 754 mmHg 36%
15:00 +29°C° 0 mm 2 m/s 754 mmHg 35%
16:00 +29°C° 0 mm 3 m/s 754 mmHg 35%
17:00 +28°C° 0 mm 3 m/s 754 mmHg 41%
18:00 +26°C° 0 mm 3 m/s 754 mmHg 48%
19:00 +24°C° 0 mm 3 m/s 754 mmHg 54%
20:00 +23°C° 0 mm 2 m/s 754 mmHg 59%
21:00 +20°C° 0 mm 2 m/s 754 mmHg 65%
22:00 +18°C° 0 mm 2 m/s 754 mmHg 70%
23:00 +18°C° 0 mm 2 m/s 754 mmHg 69%

9 Août, Lundi

Heure Température Précipitation Vent Pression Humidité
00:00 +19°C° 0 mm 1 m/s 754 mmHg 69%
01:00 +19°C° 0 mm 1 m/s 754 mmHg 68%
02:00 +18°C° 0 mm 1 m/s 754 mmHg 69%
03:00 +18°C° 0 mm 1 m/s 754 mmHg 69%
04:00 +16°C° 0 mm 1 m/s 754 mmHg 70%
05:00 +17°C° 0 mm 2 m/s 754 mmHg 67%
06:00 +18°C° 0 mm 2 m/s 754 mmHg 63%
07:00 +18°C° 0 mm 2 m/s 754 mmHg 60%
08:00 +20°C° 0 mm 3 m/s 754 mmHg 51%
09:00 +22°C° 0 mm 3 m/s 753 mmHg 42%
10:00 +24°C° 0 mm 3 m/s 753 mmHg 33%
11:00 +25°C° 0 mm 4 m/s 753 mmHg 30%
12:00 +26°C° 0 mm 4 m/s 753 mmHg 26%
13:00 +27°C° 0 mm 4 m/s 753 mmHg 22%
14:00 +27°C° 0 mm 4 m/s 753 mmHg 21%
15:00 +27°C° 0 mm 4 m/s 752 mmHg 21%
16:00 +28°C° 0 mm 4 m/s 752 mmHg 20%
17:00 +26°C° 0 mm 3 m/s 752 mmHg 28%
18:00 +24°C° 0 mm 3 m/s 752 mmHg 37%
19:00 +21°C° 0 mm 2 m/s 752 mmHg 45%
20:00 +20°C° 0 mm 2 m/s 753 mmHg 52%
21:00 +18°C° 0 mm 2 m/s 753 mmHg 58%
22:00 +16°C° 0 mm 2 m/s 753 mmHg 65%
23:00 +16°C° 0 mm 2 m/s 753 mmHg 70%
Voir plus

Nous avons besoin de votre consentement

Meteoprog et ses fournisseurs de services peuvent stocker et accéder à des données personnelles telles que des cookies, des identifiants d'appareils ou d'autres technologies similaires sur votre appareil et traiter ces données pour personnaliser le contenu et les publicités, ainsi que pour fournir des fonctionnalités de médias sociaux et analyser le trafic.

  • Stocker et/ou accéder à des informations sur votre appareil

    Des cookies, des identifiants d'appareils ou d'autres informations peuvent être stockés ou accessibles sur votre appareil aux fins indiquées ci-dessus.

  • Annonces et contenus personnalisés, mesure des annonces et des contenus, connaissance de l'audience et développement de produits

    Les annonces et le contenu peuvent être personnalisés en fonction d'un profil. D'autres données peuvent être ajoutées pour mieux personnaliser les annonces et le contenu. Les performances des publicités et du contenu peuvent être mesurées. Il est possible d'obtenir des informations sur le public qui a vu les publicités et le contenu. Ces données peuvent être utilisées pour développer ou améliorer l'expérience de l'utilisateur, les systèmes et les logiciels.

En cliquant sur "J'accepte", vous autorisez l'utilisation de cookies, des identifiants d'appareils, des balises web ou d'autres technologies similaires. Vos paramètres peuvent être modifiés dans le navigateur de votre appareil.

Dans certains cas, des intérêts légitimes peuvent être invoqués plutôt qu'un consentement. Vous pouvez en savoir plus à ce sujet dans notre Politique de confidentialité et de cookies.